Preview of NWS' New Version of Forecast
This preview is not operational and should not be used for support decisions.

Regional Weather Roundup (RWR)

Issued by National Weather Service (NWS)

                            
000
ASUS43 KLSX 240307
RWRMO 

WEATHER SUMMARY FOR MISSOURI
NATIONAL WEATHER SERVICE SPRINGFIELD MO
1000 PM CDT TUE APR 23 2019

NOTE: "FAIR" INDICATES FEW OR NO CLOUDS BELOW 12,000 FEET WITH NO
       SIGNIFICANT WEATHER AND/OR OBSTRUCTIONS TO VISIBILITY.
       CURRENT SKY AND/OR WEATHER CONDITIONS ARE NOT AVAILABLE FOR
       CHILLICOTHE AND FARMINGTON.

MOZ001>031-035>038-043-044-053-054-240400-
...NORTHERN AND WESTERN MISSOURI...
  
CITY           SKY/WX    TMP DP  RH WIND       PRES   REMARKS
KANSAS CTY INT MOCLDY    52  48  86 SE3       30.00R                  
KANSAS C DTWN  CLOUDY    56  49  77 CALM      30.00R                  
LEE'S SUMMIT   CLOUDY    53  50  89 CALM      30.00S                  
ST JOSEPH      CLOUDY    54  49  83 NE3       30.00S                  
CHILLICOTHE      N/A     54  47  77 CALM      30.02S                  
KIRKSVILLE     CLOUDY    53  49  86 E5        30.02F                  
     
$$
MOZ066>068-077>081-088>096-101>105-240400-
...SOUTHWEST MISSOURI...
  
CITY           SKY/WX    TMP DP  RH WIND       PRES   REMARKS
SPRINGFIELD    CLOUDY    60  56  86 NE7       29.96S                  
JOPLIN         LGT RAIN  57  57 100 NW6       29.98R FOG              
BRANSON        CLOUDY    63  59  88 CALM      29.98R                  
               
$$
MOZ032>034-039>042-045>050-055>058-069>072-240400-
...CENTRAL MISSOURI...  
  
CITY           SKY/WX    TMP DP  RH WIND       PRES   REMARKS
COLUMBIA       CLOUDY    56  53  90 CALM      30.01S                  
JEFFERSON CITY CLOUDY    57  54  89 E3        30.00F                  
ROLLA          CLOUDY    56  53  90 E7        29.99F                  
SEDALIA        CLOUDY    53  53 100 E5        30.00F                  
WHITEMAN AFB   LGT RAIN  53  53 100 N3        29.95F                  
WARRENSBURG    DRIZZLE   52  50  93 CALM      30.00S                  
OSAGE BEACH    CLOUDY    56  55  97 NE6       29.99S FOG              
               
$$
MOZ051-052-059>065-240400-
...EAST CENTRAL MISSOURI...
  
CITY           SKY/WX    TMP DP  RH WIND       PRES   REMARKS
ST LOUIS INTL  CLOUDY    60  53  77 NE7       30.00S                  
SPIRIT OF STL  CLOUDY    59  56  89 CALM      30.01R                  
ST CHARLES     CLOUDY    58  53  84 NE7       30.00S                  
                   
$$
MOZ072>076-082>087-097>100-106>115-240400-
...SOUTH CENTRAL AND SOUTHEAST MISSOURI...
  
CITY           SKY/WX    TMP DP  RH WIND       PRES   REMARKS
CAPE GIRARDEAU CLOUDY    68  59  73 N5        29.97R                  
FARMINGTON     CLOUDY    60  55  83 CALM      30.00R                  
POPLAR BLUFF   FAIR      66  61  84 S5        29.95S                  
WEST PLAINS    CLOUDY    66  60  81 N5        29.97R                  
                                       
$$